EW8748 Weather Reports


time (UTC)temp
C
wind
direction
speed
KPH
gust
KPH
rain 1hr
cm
rain 24hr
cm
rain mn
cm
humidity
%
barometer
mb
20260906100512 31 97 1.6 4.8 0.00 0.00 0.00 26 1019.6
20260906100012 31 59 4.8 9.7 0.00 0.00 0.00 26 1019.6
20260906095512 31 112 4.8 12.9 0.00 0.00 0.00 26 1019.6
20260906095030 31 80 4.8 11.3 0.00 0.00 0.00 26 1019.6
20260906094513 31 181 4.8 8.0 0.00 0.00 0.00 27 1019.5
20260906094029 31 78 6.4 11.3 0.00 0.00 0.00 26 1019.7
20260906093028 31 52 3.2 9.7 0.00 0.00 0.00 26 1019.8
20260906092028 31 53 1.6 4.8 0.00 0.00 0.00 28 1019.8
20260906091512 30 33 4.8 12.9 0.00 0.00 0.00 29 1019.8
20260906091026 30 89 3.2 9.7 0.00 0.00 0.00 30 1019.8
20260906085512 30 110 3.2 11.3 0.00 0.00 0.00 30 1019.9
20260906085026 30 236 1.6 8.0 0.00 0.00 0.00 32 1020.0
20260906084029 30 239 3.2 9.7 0.00 0.00 0.00 31 1019.9
20260906083512 30 193 1.6 4.8 0.00 0.00 0.00 32 1019.9
20260906082029 29 140 4.8 11.3 0.00 0.00 0.00 35 1019.8
20260906080018 28 157 3.2 9.7 0.00 0.00 0.00 38 1019.6
20260906075516 28 129 3.2 9.7 0.00 0.00 0.00 40 1019.5
20260906074514 28 193 3.2 4.8 0.00 0.00 0.00 42 1019.5
20260906073028 27 98 3.2 8.0 0.00 0.00 0.00 44 1019.3
20260906072511 27 225 1.6 8.0 0.00 0.00 0.00 45 1019.2
20260906072026 27 132 3.2 4.8 0.00 0.00 0.00 44 1019.2
20260906071512 27 119 3.2 4.8 0.00 0.00 0.00 45 1019.1
20260906070011 27 120 0.0 3.2 0.00 0.00 0.00 44 1019.1
20260906065512 26 109 3.2 8.0 0.00 0.00 0.00 45 1019.1
20260906065030 26 185 1.6 4.8 0.00 0.00 0.00 45 1019.0
20260906064512 26 151 1.6 4.8 0.00 0.00 0.00 45 1019.1
20260906063513 26 118 1.6 3.2 0.00 0.00 0.00 45 1018.9
20260906062512 26 135 0.0 1.6 0.00 0.00 0.00 45 1018.9
20260906062029 26 178 0.0 0.0 0.00 0.00 0.00 45 1019.0
20260906054511 23 266 0.0 1.6 0.00 0.00 0.00 50 1018.6
20260906054029 23 266 0.0 1.6 0.00 0.00 0.00 51 1018.6
20260906053511 23 266 0.0 3.2 0.00 0.00 0.00 51 1018.5
20260906050512 22 274 0.0 3.2 0.00 0.00 0.00 55 1018.4
20260906050012 22 294 3.2 4.8 0.00 0.00 0.00 55 1018.4
20260906044513 22 257 1.6 3.2 0.00 0.00 0.00 57 1018.4
20260906044029 22 253 1.6 3.2 0.00 0.00 0.00 57 1018.4
20260906043511 22 257 1.6 3.2 0.00 0.00 0.00 57 1018.4
20260906042026 22 301 1.6 3.2 0.00 0.00 0.00 61 1018.4
20260906040511 22 291 0.0 3.2 0.00 0.00 0.00 61 1018.4
20260906040012 22 291 0.0 0.0 0.00 0.00 0.00 61 1018.4
20260906035513 22 291 0.0 3.2 0.00 0.00 0.00 61 1018.4
20260906035019 22 291 1.6 3.2 0.00 0.00 0.00 61 1018.4
20260906033510 22 293 0.0 3.2 0.00 0.00 0.00 61 1018.3
20260906033019 22 296 1.6 4.8 0.00 0.00 0.00 61 1018.2
20260906032512 22 276 1.6 3.2 0.00 0.00 0.00 61 1018.2
20260906031020 22 274 3.2 4.8 0.00 0.00 0.00 61 1018.3
20260906030511 22 274 1.6 4.8 0.00 0.00 0.00 61 1018.3
20260906030011 22 274 1.6 4.8 0.00 0.00 0.00 61 1018.4
20260906024510 22 295 3.2 4.8 0.00 0.00 0.00 62 1018.4
20260906021019 22 307 1.6 3.2 0.00 0.00 0.00 62 1018.4
20260906014510 22 332 1.6 3.2 0.00 0.00 0.00 62 1018.6
20260906012018 22 330 0.0 0.0 0.00 0.00 0.00 60 1018.7
20260906011510 22 330 0.0 3.2 0.00 0.00 0.00 61 1018.7
20260906011019 22 330 0.0 1.6 0.00 0.00 0.00 60 1018.7
20260906010012 22 48 0.0 0.0 0.00 0.00 0.00 60 1018.8
20260906005511 22 48 0.0 0.0 0.00 0.00 0.00 60 1018.8
20260906003512 22 63 0.0 1.6 0.00 0.00 0.00 60 1018.8
20260906003021 22 55 0.0 1.6 0.00 0.00 0.00 59 1018.8
20260906002512 22 55 1.6 3.2 0.00 0.00 0.00 59 1018.8
20260906002021 23 59 1.6 4.8 0.00 0.00 0.00 59 1018.7
20260906000012 23 44 1.6 3.2 0.00 0.00 0.00 58 1018.8
20260905235021 23 271 1.6 3.2 0.00 0.00 0.00 58 1018.9
20260905234021 23 271 1.6 1.6 0.00 0.00 0.00 58 1019.0
20260905233513 23 271 1.6 3.2 0.00 0.00 0.00 58 1019.0
20260905233020 23 245 1.6 3.2 0.00 0.00 0.00 58 1019.0
20260905232512 23 257 3.2 4.8 0.00 0.00 0.00 57 1019.0
20260905231512 23 314 1.6 3.2 0.00 0.00 0.00 57 1019.1
20260905230512 23 212 1.6 3.2 0.00 0.00 0.00 58 1019.2
20260905230012 23 349 0.0 1.6 0.00 0.00 0.00 57 1019.1
20260905225020 23 349 0.0 1.6 0.00 0.00 0.00 57 1019.1
20260905223512 23 314 0.0 1.6 0.00 0.00 0.00 57 1019.2
20260905222512 23 314 0.0 1.6 0.00 0.00 0.00 57 1019.1
20260905222021 23 314 1.6 3.2 0.00 0.00 0.00 57 1019.1
20260905221512 23 251 0.0 3.2 0.00 0.00 0.00 55 1019.1
20260905215512 23 251 1.6 3.2 0.00 0.00 0.00 56 1019.2
20260905214020 23 271 3.2 4.8 0.00 0.00 0.00 57 1019.0
20260905213021 23 260 3.2 4.8 0.00 0.00 0.00 58 1019.1
20260905212512 23 266 3.2 4.8 0.00 0.00 0.00 58 1019.1
20260905212020 23 305 3.2 4.8 0.00 0.00 0.00 58 1019.0
20260905211512 23 316 3.2 4.8 0.00 0.00 0.00 57 1019.0
20260905211020 23 297 3.2 4.8 0.00 0.00 0.00 56 1019.0
20260905210513 23 312 4.8 4.8 0.00 0.00 0.00 57 1019.0
20260905210013 23 271 3.2 4.8 0.00 0.00 0.00 58 1018.9
20260905204513 23 284 3.2 4.8 0.00 0.00 0.00 62 1018.9
20260905203020 24 354 1.6 3.2 0.00 0.00 0.00 63 1019.0
20260905202021 24 359 1.6 4.8 0.00 0.00 0.00 63 1019.0
20260905201514 24 340 1.6 4.8 0.00 0.00 0.00 66 1019.0
20260905201020 24 340 0.0 3.2 0.00 0.00 0.00 66 1019.0
20260905194512 25 303 1.6 3.2 0.00 0.00 0.00 65 1019.1
20260905192514 25 319 1.6 9.7 0.00 0.00 0.00 67 1019.0
20260905192022 25 280 4.8 9.7 0.00 0.00 0.00 68 1019.0
20260905191513 25 287 3.2 11.3 0.00 0.00 0.00 68 1019.0
20260905191020 25 278 6.4 12.9 0.00 0.00 0.00 68 1018.9
20260905190012 25 286 4.8 11.3 0.00 0.00 0.00 68 1018.7
20260905185513 25 262 8.0 11.3 0.00 0.00 0.00 68 1018.7
20260905184513 25 248 8.0 14.5 0.00 0.00 0.00 67 1018.6
20260905184021 25 297 11.3 19.3 0.00 0.00 0.00 67 1018.5
20260905183512 25 269 11.3 19.3 0.00 0.00 0.00 66 1018.5
20260905183020 25 286 11.3 16.1 0.00 0.00 0.00 65 1018.4
20260905181514 25 247 9.7 19.3 0.00 0.00 0.00 61 1018.4
20260905180512 26 247 8.0 16.1 0.00 0.00 0.00 59 1018.3
20260905175028 26 249 8.0 16.1 0.00 0.00 0.00 55 1018.2
20260905174029 26 250 9.7 19.3 0.00 0.00 0.00 53 1018.1
20260905173028 27 223 9.7 19.3 0.00 0.00 0.00 51 1018.1
20260905171029 28 243 8.0 19.3 0.00 0.00 0.00 46 1018.2
20260905170512 28 266 11.3 19.3 0.00 0.00 0.00 45 1018.1
20260905165513 28 237 6.4 19.3 0.00 0.00 0.00 43 1018.2
20260905165028 28 214 14.5 22.5 0.00 0.00 0.00 42 1018.2
20260905163512 29 283 14.5 24.1 0.00 0.00 0.00 41 1018.2
20260905163029 29 297 12.9 24.1 0.00 0.00 0.00 40 1018.1
20260905162512 29 253 11.3 25.7 0.00 0.00 0.00 40 1018.2
20260905160012 30 290 16.1 25.7 0.00 0.00 0.00 38 1018.2
20260905154512 30 290 19.3 27.4 0.00 0.00 0.00 39 1018.0
20260905153513 30 255 14.5 27.4 0.00 0.00 0.00 39 1018.0
20260905153028 30 270 16.1 27.4 0.00 0.00 0.00 39 1018.0
20260905152028 30 258 16.1 32.2 0.00 0.00 0.00 40 1018.0
20260905151512 30 281 20.9 32.2 0.00 0.00 0.00 39 1018.1
20260905151030 30 214 19.3 32.2 0.00 0.00 0.00 39 1018.1
20260905150513 30 253 17.7 25.7 0.00 0.00 0.00 38 1017.9
20260905145513 30 266 16.1 29.0 0.00 0.00 0.00 37 1017.9
20260905144028 31 253 14.5 29.0 0.00 0.00 0.00 36 1017.9
20260905143512 31 280 16.1 29.0 0.00 0.00 0.00 36 1017.9
20260905142513 31 257 16.1 27.4 0.00 0.00 0.00 35 1017.9
20260905141030 31 266 16.1 33.8 0.00 0.00 0.00 34 1017.9
20260905140013 31 224 19.3 32.2 0.00 0.00 0.00 34 1018.0
20260905135028 31 241 19.3 29.0 0.00 0.00 0.00 33 1018.1
20260905134512 31 201 14.5 27.4 0.00 0.00 0.00 33 1018.0
20260905134028 31 218 14.5 32.2 0.00 0.00 0.00 33 1018.0
20260905133030 31 245 19.3 38.6 0.00 0.00 0.00 33 1018.1
20260905132512 31 247 20.9 33.8 0.00 0.00 0.00 34 1018.2
20260905132029 31 224 19.3 32.2 0.00 0.00 0.00 34 1018.2
20260905131512 31 256 22.5 41.8 0.00 0.00 0.00 34 1018.2
20260905130012 31 239 19.3 35.4 0.00 0.00 0.00 34 1018.3
20260905125028 31 231 17.7 32.2 0.00 0.00 0.00 33 1018.3
20260905124512 32 228 14.5 32.2 0.00 0.00 0.00 33 1018.5
20260905123029 32 221 16.1 29.0 0.00 0.00 0.00 32 1018.6
20260905122512 32 229 11.3 25.7 0.00 0.00 0.00 33 1018.7
20260905120512 32 332 6.4 12.9 0.00 0.00 0.00 29 1018.8
20260905115029 31 218 11.3 20.9 0.00 0.00 0.00 31 1018.9
20260905114512 31 328 8.0 20.9 0.00 0.00 0.00 31 1018.9
20260905114027 31 339 11.3 20.9 0.00 0.00 0.00 32 1018.9
20260905113512 31 354 9.7 19.3 0.00 0.00 0.00 31 1019.0
20260905111512 31 307 6.4 12.9 0.00 0.00 0.00 32 1019.1
20260905111029 31 312 9.7 19.3 0.00 0.00 0.00 32 1019.1
20260905110513 31 300 12.9 19.3 0.00 0.00 0.00 31 1019.1
20260905110013 32 330 8.0 19.3 0.00 0.00 0.00 31 1019.2
20260905105512 31 314 3.2 16.1 0.00 0.00 0.00 33 1019.1
20260905104030 31 296 3.2 9.7 0.00 0.00 0.00 32 1019.2
20260905103514 31 328 4.8 14.5 0.00 0.00 0.00 33 1019.3
20260905102029 31 315 9.7 19.3 0.00 0.00 0.00 33 1019.4